This demonstration page uses our WeatherBlox Daily Observations layout. Learn more.

Left ArrowRight Arrow

39.95238, -75.16362

Hourly Observations for May 8, 2016

Temp ( °F °C ) Dew Point ( °F °C ) Humidity (%) Winds ( mph kmh ) Pressure ( in mb ) Visibility ( mi km ) Precip ( " mm )
12:09 am 00:09 Partly Cloudy 53 11.7 49 9.4 86 86 SSW 6 9 29.74 1007 10 16 0.00 0.00
12:54 am 00:54 Mostly Cloudy 52 11.1 49 9.4 89 89 SSW 6 9 29.75 1007 10 16 0.00 0.00
1:31 am 01:31 Cloudy 52 11.1 48 8.9 86 86 SE 3 6 29.74 1007 9 14 0.00 0.00
1:54 am 01:54 Cloudy 52 11.1 48 8.9 86 86 S 3 6 29.73 1007 8 13 0.00 0.00
2:25 am 02:25 Cloudy 52 11.1 48 8.9 86 86 S 5 7 29.71 1006 9 14 0.00 0.00
2:54 am 02:54 Cloudy 52 11.1 48 8.9 86 86 S 6 9 29.71 1006 8 13 0.00 0.00
3:54 am 03:54 Cloudy 52 11.1 49 9.4 89 89 S 3 6 29.70 1006 9 14 0.00 0.00
4:13 am 04:13 Mostly Cloudy 52 11.1 48 8.9 86 86 SSW 3 6 29.71 1006 9 14 0.00 0.00
4:54 am 04:54 Mostly Cloudy 51 10.6 48 8.9 89 89 SE 3 6 29.67 1005 8 13 0.00 0.00
5:54 am 05:54 Cloudy 51 10.6 48 8.9 89 89 SE 3 6 29.65 1004 9 14 0.00 0.00
6:54 am 06:54 Cloudy with Light Rain 53 11.7 49 9.4 86 86 SSW 7 11 29.66 1005 7 11 0.01 0.25
7:54 am 07:54 Cloudy 54 12.2 50 10 87 87 SSW 3 6 29.68 1005 9 14 0.04 1.02
8:14 am 08:14 Cloudy 54 12.2 50 10 87 87 WSW 3 6 29.68 1005 10 16 0.00 0.00
8:54 am 08:54 Mostly Cloudy 56 13.3 51 10.6 84 84 SW 6 9 29.67 1005 10 16 0.00 0.00
9:18 am 09:18 Mostly Cloudy 57 14 52 11 82 82 WSW 6 9 29.68 1005 10 16 0.00 0.00
9:40 am 09:40 Mostly Cloudy 61 16 54 12 77 77 W 12 19 29.68 1005 10 16 0.00 0.00
9:54 am 09:54 Mostly Cloudy 61 16.1 54 12.2 78 78 WSW 10 17 29.67 1005 10 16 0.00 0.00
10:34 am 10:34 Mostly Cloudy 64 17.8 51 10.6 63 63 WNW 16 26 29.68 1005 10 16 0.00 0.00
10:54 am 10:54 Mostly Cloudy 66 18.9 48 8.9 52 52 WNW 18 30 29.69 1005 10 16 0.00 0.00
11:03 am 11:03 Mostly Cloudy 66 19 46 8 49 49 WNW 21 33 29.68 1005 10 16 0.00 0.00
11:54 am 11:54 Partly Cloudy 68 20 42 5.6 39 39 WNW 16 26 29.70 1006 10 16 0.00 0.00
12:54 pm 12:54 Partly Cloudy 70 21.1 32 0 25 25 WNW 17 28 29.73 1007 10 16 0.00 0.00
1:54 pm 13:54 Mostly Cloudy 70 21.1 29 -1.7 22 22 WNW 22 35 29.75 1007 10 16 0.00 0.00
2:54 pm 14:54 Mostly Cloudy 70 21.1 24 -4.4 18 18 WNW 23 37 29.77 1008 10 16 0.00 0.00
3:54 pm 15:54 Mostly Cloudy 70 21.1 26 -3.3 19 19 NW 20 31 29.79 1009 10 16 0.00 0.00
4:54 pm 16:54 Mostly Cloudy 70 21.1 23 -5 17 17 WNW 15 24 29.80 1009 10 16 0.00 0.00
5:54 pm 17:54 Mostly Cloudy 69 20.6 23 -5 17 17 WNW 14 22 29.82 1010 10 16 0.00 0.00
6:54 pm 18:54 Mostly Cloudy 69 20.6 24 -4.4 18 18 WNW 15 24 29.83 1010 10 16 0.00 0.00
7:54 pm 19:54 Mostly Cloudy 67 19.4 26 -3.3 21 21 WNW 9 15 29.86 1011 10 16 0.00 0.00
8:54 pm 20:54 Partly Cloudy 66 18.9 27 -2.8 23 23 W 8 13 29.90 1013 10 16 0.00 0.00
9:54 pm 21:54 Mostly Clear 60 15.6 38 3.3 44 44 SW 5 7 29.92 1013 10 16 0.00 0.00
10:54 pm 22:54 Partly Cloudy 60 15.6 33 0.6 36 36 W 8 13 29.95 1014 10 16 0.00 0.00
11:54 pm 23:54 Partly Cloudy 59 15 31 -0.6 35 35 W 8 13 29.97 1015 10 16 0.00 0.00

Powered by AerisWeather